Total_Precipitation_Accumulation
2.45 2.71 2.66 2.53 2.53 2.53 2.71 2.94 3.09 2.87 2.61 2.34 2.04 1.83 1.90 2.03 2.11 1.82 1.75 1.99 1.79 1.55 1.42 1.39 1.38 1.39 1.45 1.50 1.54 1.63 1.70 1.80 1.93 2.15 2.50 2.94 3.34 3.75
2.46 2.62 2.62 2.53 2.57 2.48 2.60 2.86 3.08 3.10 2.72 2.29 2.12 1.93 1.90 1.69 1.85 1.65 1.63 1.82 1.67 1.55 1.45 1.37 1.32 1.33 1.37 1.37 1.32 1.31 1.33 1.35 1.39 1.45 1.56 1.74 1.99 2.34
2.34 2.52 2.61 2.78 2.82 2.69 2.67 2.67 2.81 2.99 2.74 2.36 2.19 2.06 1.89 1.71 1.65 1.53 1.45 1.47 1.45 1.53 1.43 1.30 1.19 1.15 1.22 1.24 1.24 1.20 1.14 1.12 1.17 1.20 1.24 1.33 1.41 1.55
2.54 2.72 2.76 2.78 2.75 2.64 2.66 2.64 2.64 2.87 2.79 2.49 2.37 2.24 2.03 1.81 1.72 1.64 1.43 1.34 1.40 1.66 1.57 1.37 1.23 1.19 1.18 1.12 1.07 1.05 1.08 1.10 1.11 1.10 1.12 1.17 1.20 1.25
2.58 2.61 2.58 2.70 2.62 2.60 2.49 2.45 2.48 2.65 2.88 2.67 2.53 2.53 2.36 2.09 1.95 1.78 1.62 1.62 1.37 1.46 1.51 1.42 1.32 1.22 1.15 1.11 1.09 1.07 1.02 0.98 0.98 1.02 1.05 1.12 1.13 1.13
2.45 2.54 2.59 2.58 2.60 2.73 2.60 2.59 2.74 2.85 2.93 2.86 2.73 2.79 2.73 2.51 2.28 2.04 1.85 1.73 1.57 1.32 1.43 1.43 1.40 1.31 1.21 1.12 1.08 1.07 1.07 1.03 0.98 0.98 0.99 1.01 1.07 1.16
2.31 2.30 2.39 2.62 2.67 2.68 2.47 2.59 2.81 2.81 2.75 2.75 2.72 2.87 2.88 2.75 2.42 2.13 1.99 1.96 1.80 1.58 1.49 1.34 1.34 1.32 1.30 1.30 1.26 1.21 1.13 1.09 1.08 1.04 1.01 1.03 1.07 1.19
2.26 2.22 2.15 2.17 2.24 2.35 2.33 2.34 2.47 2.59 2.66 2.67 2.64 2.73 2.77 2.73 2.60 2.39 2.23 2.13 1.99 1.93 1.96 1.82 1.62 1.59 1.44 1.30 1.37 1.30 1.21 1.14 1.11 1.10 1.08 1.07 1.10 1.22
1.88 1.91 1.74 1.65 1.95 2.03 2.19 2.15 2.02 2.05 2.15 2.35 2.45 2.43 2.59 2.70 2.79 2.56 2.46 2.30 2.08 2.08 2.20 2.07 1.90 1.74 1.50 1.42 1.56 1.37 1.29 1.23 1.19 1.18 1.16 1.11 1.07 1.08
1.66 1.64 1.67 1.67 1.73 1.91 2.00 1.96 1.85 1.79 1.83 1.86 1.94 2.17 2.40 2.66 2.78 2.72 2.73 2.56 2.27 2.13 2.20 2.15 1.92 1.80 1.59 1.53 1.57 1.44 1.31 1.25 1.22 1.26 1.34 1.33 1.19 1.14
1.78 1.84 1.85 1.70 1.77 1.80 1.83 1.79 1.74 1.75 1.79 1.82 1.81 1.96 2.16 2.33 2.62 2.66 2.61 2.52 2.25 2.14 2.17 2.14 1.97 1.95 1.82 1.63 1.50 1.48 1.24 1.11 1.05 1.07 1.21 1.45 1.57 1.43
2.13 2.01 1.91 1.71 1.65 1.60 1.60 1.66 1.58 1.56 1.72 1.77 1.75 1.80 1.92 2.09 2.37 2.38 2.35 2.43 2.24 2.08 1.94 2.05 2.04 2.08 2.03 1.72 1.49 1.39 1.27 1.19 1.13 1.10 1.21 1.53 1.71 1.53
2.22 2.09 1.95 1.81 1.60 1.55 1.49 1.48 1.51 1.60 1.71 1.77 1.85 1.93 2.04 2.15 2.18 2.21 2.25 2.23 2.21 1.97 1.73 1.93 2.00 1.96 1.90 1.71 1.52 1.42 1.34 1.25 1.19 1.17 1.26 1.49 1.74 1.68
2.31 2.19 2.08 1.95 1.69 1.61 1.46 1.43 1.50 1.47 1.54 1.65 1.71 1.81 1.92 2.04 2.18 2.29 2.33 2.24 2.11 1.98 1.95 1.99 1.97 1.98 1.93 1.76 1.58 1.44 1.44 1.41 1.37 1.32 1.30 1.48 1.57 1.83
2.30 2.38 2.20 2.04 1.82 1.67 1.63 1.61 1.52 1.40 1.53 1.64 1.61 1.65 1.77 1.95 2.24 2.45 2.54 2.51 2.24 1.95 1.88 1.88 1.85 1.92 2.00 1.83 1.59 1.44 1.42 1.46 1.45 1.46 1.46 1.46 1.53 1.71
2.22 2.29 2.16 2.00 1.78 1.64 1.66 1.58 1.41 1.38 1.49 1.57 1.62 1.68 1.82 1.95 2.12 2.29 2.50 2.56 2.39 1.93 1.78 1.80 1.83 1.94 1.90 1.79 1.71 1.52 1.39 1.38 1.36 1.42 1.55 1.62 1.71 1.78
2.24 2.29 2.21 2.09 1.93 1.76 1.68 1.68 1.66 1.61 1.55 1.56 1.70 1.74 1.77 1.77 1.85 2.03 2.29 2.39 2.23 1.82 1.63 1.70 1.90 2.03 2.03 2.03 1.91 1.65 1.55 1.42 1.38 1.53 1.67 1.66 1.67 1.69
1.97 2.13 2.16 2.06 1.97 1.90 1.86 1.83 1.79 1.70 1.61 1.62 1.66 1.71 1.72 1.71 1.74 1.85 2.03 2.19 2.15 1.93 1.76 1.70 1.91 2.12 2.09 1.94 1.80 1.72 1.61 1.54 1.52 1.66 1.72 1.68 1.61 1.59
1.67 1.84 1.88 1.87 1.87 1.91 1.91 1.82 1.74 1.70 1.73 1.69 1.63 1.68 1.74 1.76 1.80 1.89 1.95 2.06 2.12 2.10 1.97 1.87 1.91 2.01 1.92 1.62 1.45 1.48 1.55 1.54 1.63 1.68 1.67 1.62 1.50 1.48
1.55 1.66 1.67 1.69 1.77 1.85 1.89 1.87 1.77 1.77 1.81 1.79 1.75 1.78 1.88 1.91 1.88 1.89 1.95 2.00 2.07 2.12 2.12 1.97 1.83 1.77 1.69 1.59 1.51 1.38 1.39 1.50 1.58 1.58 1.59 1.61 1.52 1.57
1.53 1.63 1.68 1.68 1.73 1.82 1.87 1.90 1.90 1.92 1.91 1.93 1.92 1.91 1.99 2.06 1.95 1.88 1.96 2.11 2.11 2.11 2.04 1.88 1.82 1.99 2.07 2.14 1.88 1.48 1.40 1.46 1.52 1.57 1.63 1.73 1.70 1.72
1.72 1.72 1.79 1.81 1.81 1.82 1.85 1.86 1.90 1.94 1.93 1.94 1.97 2.00 2.04 2.07 1.97 1.94 1.95 2.05 2.03 2.00 2.03 2.07 2.23 2.38 2.35 2.31 2.03 1.76 1.64 1.57 1.58 1.56 1.52 1.56 1.55 1.53
1.72 1.75 1.80 1.76 1.75 1.80 1.84 1.82 1.89 1.93 1.94 1.94 2.00 2.02 1.99 1.99 1.95 1.96 1.97 2.01 2.08 2.15 2.26 2.35 2.45 2.43 2.25 2.15 2.01 1.88 1.82 1.81 1.74 1.68 1.59 1.52 1.38 1.27